Tracking 17143 objects as of 25-May-2015
HD Live streaming from Space Station

SL-12 R/B(2)

Track SL-12 R/B(2) now!
SL-12 R/B(2) is classified as:


NORAD ID: 24919
Int'l Code: 1997-046D
Perigee: 8,558.0 km
Apogee: 35,831.2 km
Inclination: 13.5 °
Period: 800.8 minutes
Semi major axis: 28565 km
RCS: 29.9426 m2 (large)
Launch date: August 28, 1997
Source: Commonwealth of Independent States (former USSR) (CIS)

Note: This is a ROCKET BODY
Your satellite tracking list
Your tracking list is empty





NASA's NSSDC Master Catalog

Two Line Element Set (TLE):
1 24919U 97046D   15144.39835234 -.00000070  00000-0  00000+0 0  9990
2 24919 013.4661 126.7154 4773784 033.0340 133.2234 01.79819885116515

Source of the keplerian elements: AFSPC

N2YO: 356